Temp
-2 -2 -1 -1 -1 -1 -1 -1 -1 -2 -1 -1 -1 -1 -0 0 0 1 2 2 4 1 0 1 2 2 2 3 0 1 1 1 -1 -2 -1 -2 -1 2 2 2 3 1 0 -2 -0 0 1 -1 1 0 -1 -2 -2 -2
-3 -2 -2 -1 -1 -1 -1 -1 -1 -1 -1 -1 -1 -1 -0 0 0 1 1 1 2 2 0 1 1 2 3 3 3 1 1 1 1 -1 -2 -1 -1 -3 0 -1 0 -1 -1 -1 -0 -1 -0 -1 -1 -2 -2 -3 -3 -2
-4 -3 -2 -2 -1 -1 -1 -1 -1 -1 -1 -1 -0 -0 -0 -0 -0 1 1 1 1 1 1 1 1 2 2 2 3 2 1 1 1 2 -1 -4 -2 -3 -2 -1 -3 1 1 -1 -0 -0 -1 -1 -1 -2 -2 -2 -3 -3
-4 -4 -3 -2 -2 -1 -1 -1 -1 -1 -1 -1 -1 -1 -1 -1 -1 -0 -0 -0 0 0 -1 0 1 1 2 2 2 2 2 1 1 1 0 -5 -2 -0 -3 -1 -3 -2 -1 -2 -1 -1 -1 -1 -1 -2 -3 -3 -3 -3
-4 -4 -4 -3 -2 -2 -1 -1 -1 -1 -1 -1 -1 -1 -1 -1 -1 -1 -1 -0 0 0 -2 0 1 1 1 1 1 1 1 1 1 -0 -5 -3 -1 -1 -1 -2 -5 -1 -3 -3 -3 -0 -1 -1 -1 -2 -3 -3 -3 -3
-4 -4 -4 -3 -3 -2 -2 -1 -1 -1 -1 -1 -2 -2 -2 -1 -2 -1 -1 -1 -0 -0 -0 -4 0 1 2 1 1 1 1 0 0 1 -1 -0 1 0 -4 -2 0 -1 -1 0 -0 -1 -1 -1 -2 -3 -3 -4 -4 -4
-4 -4 -4 -4 -3 -3 -2 -2 -1 -1 -1 -1 -2 -2 -2 -2 -2 -1 -1 -1 -1 -1 -1 -3 -2 0 1 1 1 1 1 0 0 0 -1 -1 0 0 -4 -2 1 1 0 -0 -1 -1 -2 -2 -3 -3 -4 -4 -5 -5
-4 -4 -4 -4 -3 -3 -2 -2 -1 -1 -1 -1 -1 -2 -2 -3 -2 -1 -2 -1 -1 -1 -1 -6 -3 -0 0 0 0 0 0 0 -0 -0 -1 -2 -1 -1 -2 -0 1 0 -1 -1 -2 -2 -2 -2 -3 -4 -5 -5 -6 -7
-4 -4 -4 -4 -4 -3 -3 -2 -2 -1 -1 -1 -2 -3 -3 -3 -2 -2 -2 -2 -1 -1 -2 -4 -4 -4 -1 -1 -0 -0 0 -3 -1 -3 -3 -2 -2 -2 -1 -0 -1 -1 -1 -2 -3 -3 -4 -4 -5 -5 -6 -6 -7 -8
-4 -4 -4 -4 -4 -3 -3 -3 -2 -2 -1 -2 -3 -3 -3 -3 -2 -2 -2 -2 -2 -1 -2 -4 -2 -5 -1 -2 -3 -2 -2 -5 -5 -3 -1 -3 -2 -4 -4 -3 -3 -3 -3 -3 -4 -5 -6 -7 -7 -8 -8 -8 -9 -9
-4 -4 -4 -4 -4 -3 -3 -3 -2 -2 -2 -3 -4 -4 -3 -3 -2 -2 -3 -4 -4 -4 -3 -3 -2 -3 -2 -3 -5 -2 -4 -3 -3 -2 -2 -1 -3 -4 -6 -5 -5 -5 -5 -4 -5 -6 -7 -7 -8 -9 -9 -10 -10 -10
-4 -4 -4 -4 -4 -4 -4 -3 -2 -2 -3 -3 -3 -3 -3 -2 -3 -6 -8 -5 -4 -3 -3 -3 -2 -1 -1 -1 -2 -3 -3 -3 -2 -1 -1 -2 -6 -7 -6 -6 -6 -6 -6 -6 -7 -7 -8 -9 -10 -10 -10 -10 -10 -11
-4 -4 -4 -4 -4 -4 -4 -4 -3 -3 -3 -3 -2 -3 -2 -4 -5 -6 -5 -4 -5 -3 -2 -2 -6 -1 -1 -1 -2 -4 -3 -2 -2 -3 -4 -6 -7 -7 -7 -6 -7 -7 -7 -8 -8 -9 -9 -10 -11 -11 -11 -11 -12 -12
-4 -4 -4 -4 -4 -4 -3 -3 -3 -3 -3 -2 -3 -4 -7 -5 -6 -5 -5 -4 -1 -0 -0 -0 -1 -1 -1 -3 -1 -3 -4 -2 -6 -4 -3 -6 -7 -7 -7 -7 -7 -7 -8 -9 -9 -9 -10 -11 -12 -12 -12 -13 -12 -12
-4 -4 -4 -4 -4 -4 -3 -3 -3 -3 -2 -2 -2 -6 -6 -4 -4 -3 -2 -1 -0 0 0 -0 -1 -1 -4 -4 -2 -1 -1 -1 -3 -2 -8 -6 -6 -6 -7 -7 -8 -8 -9 -9 -9 -10 -11 -12 -12 -12 -12 -13 -13 -13
-4 -5 -5 -5 -5 -4 -4 -3 -3 -3 -3 -3 -3 -4 -4 -4 -4 -3 -4 -3 -2 -1 0 -0 -1 -3 -2 -3 -0 -1 -3 -5 -5 -7 -7 -6 -6 -7 -7 -8 -9 -9 -10 -10 -10 -11 -12 -12 -12 -13 -13 -13 -13 -13
-5 -5 -5 -5 -5 -5 -4 -4 -4 -3 -3 -4 -5 -5 -5 -3 -2 -2 -2 -3 -2 -1 -5 -1 -3 -2 -3 -3 -1 -2 -6 -9 -8 -8 -7 -6 -6 -7 -8 -8 -9 -10 -10 -11 -11 -12 -12 -12 -12 -12 -12 -13 -13 -13
-4 -5 -5 -5 -5 -5 -5 -4 -3 -3 -6 -5 -6 -6 -5 -5 -4 -4 -3 -3 -2 -1 -1 -1 -2 -2 -6 -3 -5 -8 -7 -8 -7 -6 -7 -7 -7 -8 -8 -9 -10 -10 -11 -11 -12 -12 -12 -12 -12 -13 -13 -13 -13 -13
-4 -5 -4 -4 -4 -4 -4 -3 -3 -5 -6 -6 -6 -5 -5 -5 -4 -4 -4 -3 -2 -2 -2 -3 -7 -6 -6 -6 -6 -6 -6 -6 -8 -8 -8 -8 -8 -9 -9 -10 -10 -11 -11 -12 -12 -12 -12 -12 -13 -13 -13 -13 -13 -14
-4 -4 -3 -4 -4 -4 -3 -3 -3 -4 -5 -5 -6 -6 -5 -5 -5 -5 -4 -3 -3 -2 -3 -7 -8 -5 -4 -4 -3 -3 -4 -5 -6 -9 -9 -10 -9 -9 -10 -10 -11 -11 -11 -12 -12 -12 -13 -13 -13 -14 -14 -14 -14 -14
-4 -4 -4 -4 -4 -3 -3 -3 -4 -5 -5 -5 -6 -5 -6 -6 -6 -5 -5 -4 -4 -5 -9 -6 -6 -5 -4 -4 -3 -4 -4 -5 -6 -5 -7 -10 -10 -10 -11 -11 -11 -11 -12 -12 -12 -12 -13 -13 -14 -14 -14 -14 -14 -14
-3 -3 -4 -4 -3 -3 -3 -4 -4 -5 -5 -5 -5 -5 -6 -6 -6 -5 -5 -5 -5 -6 -6 -6 -5 -6 -6 -5 -5 -5 -5 -6 -7 -7 -8 -9 -9 -10 -11 -11 -11 -11 -12 -12 -12 -13 -13 -13 -14 -14 -14 -15 -15 -15
-1 -1 -1 -2 -3 -3 -4 -4 -4 -4 -7 -6 -5 -6 -8 -6 -5 -6 -6 -6 -6 -7 -6 -6 -6 -7 -6 -6 -6 -6 -7 -7 -7 -8 -8 -9 -10 -10 -11 -11 -12 -12 -12 -12 -13 -13 -14 -14 -14 -14 -15 -15 -15 -15
-0 -0 -2 -3 -3 -6 -4 -4 -4 -4 -5 -6 -7 -6 -7 -6 -6 -6 -10 -7 -7 -7 -7 -7 -8 -8 -8 -8 -8 -7 -7 -7 -8 -9 -9 -10 -10 -11 -11 -12 -12 -12 -13 -13 -13 -14 -14 -14 -14 -15 -15 -15 -15 -15
-1 -3 -3 -6 -4 -5 -5 -6 -5 -5 -6 -7 -6 -7 -8 -6 -11 -13 -11 -8 -9 -8 -8 -8 -8 -8 -8 -9 -9 -9 -9 -9 -9 -9 -10 -10 -11 -12 -12 -12 -13 -13 -13 -13 -13 -14 -14 -14 -14 -15 -15 -15 -15 -15
-8 -5 -5 -6 -7 -6 -6 -7 -6 -6 -7 -7 -7 -7 -6 -13 -10 -10 -9 -7 -8 -9 -9 -9 -9 -9 -9 -9 -9 -10 -10 -10 -10 -10 -11 -11 -11 -11 -11 -12 -12 -12 -13 -13 -13 -14 -14 -14 -15 -15 -15 -15 -16 -16
-7 -8 -5 -5 -4 -4 -5 -5 -4 -7 -9 -8 -10 -12 -12 -10 -11 -9 -7 -7 -7 -7 -8 -8 -8 -8 -9 -9 -10 -10 -10 -11 -11 -11 -11 -12 -12 -12 -12 -12 -12 -13 -13 -13 -14 -14 -14 -15 -15 -16 -16 -16 -16 -16
-6 -5 -8 -6 -5 -5 -10 -10 -9 -9 -9 -5 -7 -11 -11 -11 -9 -7 -7 -7 -7 -8 -8 -9 -9 -9 -9 -9 -10 -11 -11 -11 -12 -12 -12 -12 -12 -12 -12 -13 -13 -13 -13 -13 -14 -14 -14 -15 -16 -16 -16 -16 -17 -17
-6 -6 -6 -9 -6 -6 -6 -9 -9 -7 -7 -7 -11 -13 -9 -7 -7 -7 -7 -7 -8 -8 -9 -10 -10 -10 -10 -10 -11 -11 -11 -11 -11 -11 -11 -11 -11 -12 -12 -12 -12 -13 -13 -14 -14 -15 -15 -16 -16 -17 -17 -17 -18 -18
-7 -7 -7 -11 -14 -12 -9 -8 -9 -9 -8 -8 -8 -8 -8 -7 -7 -7 -7 -8 -8 -9 -9 -9 -9 -10 -10 -10 -11 -12 -12 -11 -11 -11 -11 -11 -11 -12 -12 -13 -13 -13 -13 -14 -15 -16 -16 -17 -17 -17 -17 -18 -18 -18
-8 -8 -8 -9 -12 -10 -10 -10 -10 -9 -9 -9 -9 -9 -9 -8 -8 -8 -8 -9 -9 -9 -9 -9 -10 -10 -10 -10 -10 -11 -11 -11 -12 -12 -12 -12 -12 -13 -13 -13 -13 -13 -14 -14 -15 -16 -16 -17 -17 -17 -18 -18 -18 -18
-9 -9 -9 -12 -10 -11 -11 -11 -11 -11 -11 -11 -11 -11 -11 -10 -10 -10 -10 -10 -10 -10 -10 -10 -9 -9 -10 -10 -10 -11 -11 -11 -11 -11 -12 -12 -12 -13 -13 -13 -13 -14 -14 -14 -15 -15 -16 -16 -17 -17 -17 -17 -18 -18
-10 -9 -10 -10 -11 -11 -11 -12 -11 -12 -12 -12 -11 -12 -11 -11 -10 -11 -11 -11 -11 -10 -10 -10 -10 -10 -10 -11 -11 -11 -12 -12 -12 -12 -12 -13 -13 -13 -13 -13 -14 -14 -14 -14 -15 -15 -16 -16 -17 -17 -17 -17 -18 -18
Height
1352 1353 1354 1358 1363 1370 1376 1381 1387 1392 1397 1402 1406 1410 1414 1418 1422 1425 1428 1430 1434 1442 1449 1450 1451 1455 1458 1461 1468 1473 1476 1478 1481 1490 1493 1497 1495 1490 1490 1488 1486 1492 1496 1503 1497 1494 1491 1483 1478 1480 1486 1481 1479 1474
1354 1356 1358 1360 1364 1370 1376 1383 1388 1394 1399 1403 1408 1412 1415 1420 1423 1426 1430 1435 1438 1442 1450 1452 1455 1458 1460 1462 1465 1470 1473 1475 1479 1486 1491 1491 1494 1497 1493 1498 1488 1497 1494 1497 1494 1490 1483 1483 1485 1485 1483 1482 1479 1476
1355 1358 1361 1363 1366 1370 1376 1383 1389 1395 1401 1406 1411 1414 1418 1422 1425 1429 1433 1437 1441 1446 1452 1456 1457 1460 1462 1464 1466 1470 1474 1476 1478 1480 1485 1491 1494 1493 1498 1494 1493 1486 1486 1491 1489 1481 1482 1483 1484 1483 1482 1480 1479 1476
1356 1359 1362 1366 1368 1372 1376 1382 1389 1395 1402 1407 1413 1417 1420 1424 1428 1432 1436 1440 1444 1446 1452 1458 1457 1459 1461 1465 1468 1470 1472 1475 1478 1481 1484 1489 1492 1488 1491 1488 1491 1487 1486 1487 1484 1481 1481 1482 1482 1482 1480 1479 1477 1475
1357 1360 1363 1366 1370 1374 1378 1383 1388 1395 1402 1409 1414 1419 1423 1427 1430 1434 1438 1442 1445 1449 1452 1455 1458 1460 1462 1465 1468 1471 1474 1476 1479 1482 1485 1489 1487 1487 1485 1487 1489 1480 1481 1486 1484 1475 1477 1479 1481 1481 1480 1477 1475 1473
1357 1360 1364 1368 1372 1375 1379 1384 1389 1396 1402 1409 1415 1421 1425 1428 1432 1437 1442 1445 1446 1447 1451 1458 1461 1461 1463 1467 1469 1473 1475 1477 1480 1482 1483 1484 1483 1484 1490 1487 1476 1476 1475 1476 1476 1477 1478 1478 1478 1480 1479 1477 1475 1473
1358 1361 1365 1369 1373 1377 1381 1386 1391 1396 1401 1409 1416 1422 1426 1432 1436 1439 1442 1444 1447 1450 1452 1459 1460 1462 1464 1467 1471 1473 1475 1478 1480 1482 1482 1482 1480 1482 1485 1482 1472 1472 1474 1474 1475 1476 1477 1477 1477 1479 1479 1477 1475 1473
1358 1362 1366 1370 1374 1378 1382 1387 1393 1399 1404 1410 1417 1424 1430 1435 1439 1442 1444 1445 1449 1452 1455 1461 1463 1463 1465 1468 1471 1473 1475 1478 1479 1479 1479 1479 1479 1479 1479 1469 1469 1470 1472 1474 1475 1475 1475 1476 1477 1478 1478 1476 1474 1472
1358 1362 1367 1371 1376 1380 1384 1388 1393 1400 1406 1413 1419 1426 1434 1440 1442 1444 1446 1449 1452 1457 1457 1460 1464 1468 1464 1467 1470 1473 1474 1477 1477 1476 1476 1477 1475 1474 1469 1468 1469 1470 1472 1473 1475 1476 1476 1476 1477 1477 1476 1475 1474 1471
1358 1363 1367 1372 1376 1381 1385 1389 1394 1401 1405 1411 1420 1430 1437 1441 1444 1447 1453 1455 1457 1456 1458 1460 1461 1463 1464 1466 1470 1473 1473 1475 1479 1473 1473 1473 1469 1470 1469 1468 1470 1471 1472 1474 1475 1476 1476 1476 1477 1476 1475 1474 1472 1471
1358 1363 1368 1373 1377 1382 1386 1390 1395 1400 1403 1412 1420 1428 1436 1443 1446 1449 1453 1455 1457 1458 1456 1456 1458 1460 1463 1465 1469 1469 1472 1471 1475 1469 1471 1467 1466 1468 1470 1469 1471 1472 1473 1474 1474 1474 1474 1474 1474 1474 1473 1472 1470 1469
1358 1364 1368 1373 1378 1382 1386 1390 1393 1397 1402 1409 1416 1429 1438 1443 1447 1451 1456 1457 1457 1453 1453 1454 1456 1458 1460 1463 1465 1468 1469 1471 1469 1466 1465 1464 1467 1467 1469 1471 1472 1473 1473 1474 1474 1474 1473 1473 1473 1472 1472 1471 1470 1468
1359 1365 1369 1374 1378 1382 1387 1391 1397 1400 1406 1416 1423 1431 1435 1444 1449 1453 1454 1452 1453 1446 1447 1450 1454 1456 1460 1461 1462 1465 1468 1469 1465 1467 1467 1468 1467 1469 1470 1471 1472 1473 1473 1473 1473 1473 1473 1472 1472 1471 1471 1470 1469 1469
1360 1366 1371 1376 1380 1384 1387 1393 1399 1403 1409 1414 1420 1428 1433 1440 1441 1439 1439 1440 1439 1440 1442 1446 1450 1451 1455 1459 1459 1463 1464 1464 1474 1472 1461 1463 1465 1467 1469 1471 1472 1472 1473 1473 1472 1472 1472 1472 1471 1471 1470 1470 1470 1469
1364 1369 1374 1379 1382 1386 1389 1395 1400 1406 1409 1415 1418 1428 1429 1428 1430 1431 1434 1436 1437 1439 1442 1446 1448 1450 1453 1457 1456 1457 1461 1458 1463 1457 1460 1460 1463 1466 1468 1470 1471 1472 1472 1472 1472 1472 1472 1472 1472 1471 1471 1471 1470 1470
1368 1374 1377 1381 1386 1391 1396 1400 1405 1407 1411 1415 1418 1423 1426 1429 1431 1432 1434 1435 1437 1439 1443 1445 1448 1451 1451 1453 1453 1455 1461 1467 1456 1454 1456 1459 1463 1466 1468 1470 1471 1471 1471 1471 1472 1472 1473 1473 1474 1473 1473 1473 1472 1471
1370 1373 1380 1386 1391 1395 1398 1404 1409 1410 1412 1417 1422 1423 1424 1425 1428 1431 1433 1434 1436 1439 1441 1443 1448 1446 1449 1452 1449 1451 1456 1454 1453 1454 1456 1460 1463 1465 1467 1469 1470 1471 1471 1472 1473 1473 1474 1474 1474 1474 1474 1474 1473 1472
1374 1379 1384 1390 1394 1396 1404 1406 1409 1412 1417 1421 1423 1424 1424 1427 1429 1430 1431 1432 1436 1437 1438 1440 1439 1442 1451 1447 1451 1448 1449 1451 1453 1456 1459 1461 1464 1465 1467 1469 1470 1471 1472 1473 1474 1474 1474 1474 1474 1474 1473 1473 1473 1472
1378 1383 1390 1394 1399 1402 1406 1410 1411 1414 1419 1421 1422 1424 1427 1427 1428 1429 1431 1434 1435 1436 1436 1438 1442 1444 1442 1440 1440 1442 1446 1448 1452 1457 1460 1463 1465 1466 1467 1469 1470 1471 1472 1473 1474 1474 1475 1474 1474 1473 1473 1472 1472 1471
1385 1391 1395 1401 1404 1406 1407 1410 1411 1414 1420 1424 1425 1427 1427 1427 1429 1431 1432 1433 1434 1436 1436 1436 1435 1435 1436 1437 1438 1441 1445 1448 1451 1456 1460 1463 1465 1467 1468 1470 1471 1472 1473 1474 1474 1475 1475 1475 1475 1474 1473 1473 1472 1471
1391 1396 1400 1400 1403 1405 1407 1410 1414 1419 1423 1424 1425 1426 1428 1429 1430 1431 1431 1432 1433 1433 1432 1432 1433 1434 1435 1437 1440 1443 1446 1448 1451 1453 1456 1460 1464 1467 1468 1470 1472 1473 1474 1475 1475 1475 1476 1475 1475 1475 1474 1473 1472 1472
1396 1398 1401 1404 1406 1408 1411 1413 1414 1418 1422 1424 1426 1427 1428 1429 1430 1431 1432 1432 1431 1429 1429 1430 1431 1433 1436 1438 1441 1444 1447 1450 1453 1455 1458 1460 1462 1465 1467 1469 1471 1472 1474 1474 1475 1475 1475 1475 1474 1474 1474 1473 1473 1472
1398 1400 1401 1402 1405 1410 1418 1416 1418 1421 1424 1426 1426 1427 1429 1429 1430 1432 1431 1429 1426 1426 1427 1429 1432 1434 1437 1439 1442 1445 1448 1450 1453 1455 1458 1461 1463 1466 1468 1469 1471 1472 1473 1474 1475 1475 1475 1474 1474 1474 1474 1473 1472 1472
1402 1402 1404 1405 1408 1414 1416 1417 1419 1421 1423 1425 1427 1428 1429 1429 1431 1431 1431 1424 1422 1422 1425 1427 1430 1433 1437 1439 1442 1445 1447 1450 1453 1456 1458 1460 1463 1465 1467 1469 1470 1471 1473 1473 1474 1474 1474 1474 1474 1473 1473 1472 1472 1471
1406 1410 1410 1411 1412 1414 1416 1418 1420 1421 1424 1425 1426 1428 1428 1429 1432 1433 1427 1419 1419 1421 1423 1426 1429 1432 1433 1437 1441 1444 1447 1450 1452 1455 1458 1461 1462 1464 1466 1468 1469 1470 1471 1472 1472 1473 1473 1473 1473 1472 1472 1471 1471 1470
1411 1411 1412 1412 1413 1414 1416 1420 1420 1421 1422 1424 1425 1426 1427 1429 1432 1429 1419 1416 1416 1418 1421 1423 1426 1430 1434 1437 1439 1443 1446 1450 1453 1455 1457 1459 1462 1463 1465 1466 1468 1469 1469 1470 1470 1470 1470 1470 1470 1471 1470 1470 1469 1469
1414 1413 1412 1413 1413 1414 1415 1416 1417 1419 1423 1424 1425 1427 1429 1432 1431 1418 1415 1415 1415 1417 1420 1424 1427 1430 1433 1437 1441 1444 1447 1450 1453 1455 1457 1459 1461 1463 1464 1465 1466 1468 1468 1468 1468 1467 1467 1467 1467 1468 1468 1468 1468 1467
1411 1412 1414 1414 1414 1414 1416 1417 1418 1419 1418 1418 1421 1426 1428 1425 1419 1415 1415 1415 1416 1417 1420 1424 1428 1431 1434 1437 1440 1442 1445 1448 1451 1453 1455 1457 1458 1460 1461 1462 1463 1464 1465 1465 1465 1464 1464 1464 1465 1465 1465 1465 1466 1466
1412 1412 1413 1413 1414 1414 1413 1414 1414 1415 1416 1416 1418 1419 1415 1414 1413 1413 1414 1415 1415 1416 1418 1421 1425 1429 1433 1436 1439 1441 1444 1446 1448 1450 1453 1455 1456 1458 1459 1460 1461 1462 1462 1463 1463 1463 1463 1463 1463 1464 1464 1464 1464 1463
1413 1413 1413 1413 1414 1414 1413 1413 1414 1414 1414 1414 1414 1413 1412 1411 1411 1412 1412 1413 1414 1415 1418 1421 1424 1427 1429 1432 1435 1439 1442 1445 1447 1450 1452 1453 1456 1457 1458 1459 1460 1460 1461 1461 1461 1462 1462 1462 1463 1463 1463 1463 1462 1461
1412 1413 1413 1413 1413 1413 1412 1413 1413 1413 1412 1411 1411 1411 1410 1410 1408 1409 1409 1411 1413 1415 1417 1419 1422 1425 1428 1430 1433 1436 1439 1442 1444 1447 1449 1451 1453 1455 1456 1457 1458 1458 1459 1459 1460 1460 1461 1461 1462 1462 1462 1462 1461 1460
1412 1412 1413 1413 1412 1413 1412 1411 1410 1410 1408 1408 1407 1407 1408 1408 1407 1405 1404 1406 1408 1411 1413 1417 1419 1422 1426 1430 1433 1435 1437 1439 1442 1445 1447 1449 1451 1452 1454 1455 1455 1456 1457 1458 1459 1459 1460 1461 1461 1461 1461 1460 1459 1458
1411 1412 1412 1412 1411 1411 1412 1412 1410 1409 1408 1406 1405 1405 1405 1406 1405 1404 1403 1402 1405 1409 1412 1416 1420 1423 1425 1428 1431 1433 1435 1437 1440 1443 1445 1447 1449 1450 1452 1453 1454 1455 1456 1457 1458 1459 1459 1459 1460 1460 1459 1459 1458 1457
Wind_Speed
6 2 11 18 22 30 27 24 26 22 21 22 21 20 24 22 17 13 15 13 12 7 8 9 8 8 9 8 4 5 4 3 3 3 2 2 2 1 1 1 1 2 1 1 1 1 5 8 4 4 6 12 15 18
7 8 2 13 18 25 28 29 27 25 24 22 20 19 19 22 16 13 13 10 13 9 9 10 10 10 10 10 15 4 4 3 4 3 1 2 1 2 3 2 3 1 4 3 5 4 1 2 0 6 9 10 12 14
9 11 10 6 13 21 27 27 30 30 28 25 22 18 16 16 15 12 12 9 9 10 8 6 5 7 9 8 8 5 3 4 5 5 5 2 1 3 2 3 1 2 3 2 0 3 4 5 4 8 8 9 10 10
10 11 14 11 11 15 18 26 29 29 30 25 22 19 15 15 13 12 15 10 8 8 5 3 7 7 9 8 6 4 8 11 10 6 3 2 2 5 2 2 3 5 2 4 4 1 4 8 7 9 9 9 10 8
13 12 14 14 13 15 20 22 25 31 31 29 23 19 14 14 15 15 15 12 9 4 4 5 7 8 7 9 10 7 8 9 7 3 2 2 2 2 0 2 3 6 6 4 5 8 4 4 4 7 8 10 8 9
15 14 16 17 15 13 17 21 25 26 30 31 26 21 16 17 15 20 6 7 9 6 4 2 3 7 10 9 7 8 6 7 5 4 3 3 3 2 2 2 4 4 5 3 3 7 5 4 4 4 5 5 8 10
15 17 19 17 19 17 16 25 23 24 25 30 26 22 21 17 18 6 5 10 11 6 4 3 3 3 9 13 9 8 9 4 3 3 4 3 3 7 2 3 4 6 5 5 6 7 6 6 4 7 6 5 8 9
16 18 19 19 19 20 19 21 23 24 24 27 27 26 22 21 15 9 7 16 14 6 4 3 1 3 7 6 5 6 6 5 4 3 2 3 2 4 4 10 11 9 11 7 3 6 3 6 7 6 5 7 10 10
19 19 20 21 21 20 20 23 23 28 29 31 29 29 24 16 7 11 12 18 13 2 3 2 3 3 5 4 5 4 5 1 2 3 4 4 2 4 2 4 7 12 7 8 8 8 7 5 6 6 7 8 7 9
21 20 21 22 21 20 21 25 27 34 39 43 39 13 7 12 24 21 7 4 5 2 2 2 4 1 6 3 2 4 1 2 1 4 5 2 3 6 5 9 9 9 9 6 3 1 3 3 5 7 7 7 9 8
25 21 22 23 23 24 23 27 28 44 45 37 8 5 29 25 7 4 4 2 1 1 5 5 13 4 7 3 3 4 3 1 1 3 3 3 2 5 10 11 8 4 1 3 3 2 2 4 5 5 7 6 7 7
27 24 22 24 24 25 25 30 34 47 22 20 22 34 23 5 4 4 2 0 2 3 6 7 7 8 6 5 3 4 3 1 3 6 2 3 0 13 12 9 4 1 1 1 1 1 2 3 3 4 4 5 5 5
29 25 24 26 26 26 25 30 34 27 36 41 14 6 7 2 4 6 7 4 2 5 9 9 2 9 5 5 3 3 3 4 0 1 3 2 10 12 10 7 5 2 1 2 2 2 2 2 2 2 2 2 3 3
29 27 25 26 25 25 34 36 40 41 26 5 5 5 4 4 4 4 4 5 7 5 15 17 7 5 5 3 2 3 3 2 2 1 4 4 16 14 10 6 3 2 2 1 1 2 1 3 4 4 3 3 2 1
30 26 25 24 26 28 33 42 23 19 6 4 5 4 4 3 3 5 9 4 5 4 17 11 4 2 1 3 2 2 2 3 4 3 3 14 18 14 10 6 4 2 1 0 1 1 2 4 5 7 7 6 7 5
29 25 24 25 24 24 33 32 21 7 4 3 4 5 4 5 3 7 6 4 5 15 16 4 2 2 2 3 3 5 5 5 3 2 11 20 17 13 9 6 4 3 1 1 4 6 6 6 6 8 9 8 8 9
32 21 25 24 23 23 37 17 5 3 4 4 3 8 8 7 7 7 8 8 12 11 3 3 5 6 2 2 4 2 4 3 7 11 17 17 14 11 8 7 6 3 3 5 5 3 1 3 3 3 4 3 5 5
19 25 24 25 25 17 18 1 4 4 5 4 4 6 6 6 10 7 7 10 8 5 5 3 3 2 4 5 3 4 5 10 11 18 16 13 10 9 8 7 6 5 6 4 2 2 3 2 3 5 5 4 6 5
26 25 26 23 26 16 4 3 1 5 5 5 8 8 5 6 7 6 8 8 5 5 4 4 3 3 3 4 5 13 18 18 23 19 15 11 10 9 8 8 6 6 4 5 4 3 3 5 7 6 4 5 6 6
24 26 27 24 10 4 3 4 4 7 4 4 6 6 5 4 5 3 4 7 7 4 3 2 3 4 5 7 9 14 19 18 22 21 17 15 11 10 9 8 9 8 7 5 3 2 1 5 7 6 5 5 7 7
33 26 16 11 5 5 5 4 5 5 7 4 10 4 4 7 4 4 3 6 4 3 3 5 6 7 7 8 12 16 17 17 18 13 20 20 14 11 12 9 9 6 4 5 3 2 2 4 6 4 4 2 5 4
23 16 11 7 3 4 5 6 7 6 4 6 6 4 4 3 4 4 3 3 4 5 5 5 10 12 11 12 14 14 14 14 13 9 15 15 15 13 13 10 9 6 4 4 4 4 4 7 4 4 3 3 3 4
14 10 4 5 4 5 4 3 3 3 3 5 4 2 0 2 3 6 3 4 5 8 9 10 14 13 12 13 15 16 16 14 15 13 15 14 12 12 10 9 8 7 6 5 4 3 2 2 3 4 5 7 7 6
9 3 4 4 6 3 3 2 3 3 4 2 2 2 2 3 6 1 3 4 6 10 15 18 19 18 16 15 17 17 16 14 15 17 16 15 14 12 8 8 8 8 8 6 5 5 4 2 2 2 4 5 6 6
2 4 3 3 3 3 2 2 1 2 2 2 2 0 2 3 1 2 3 4 12 16 20 21 20 19 22 20 18 17 16 16 17 18 16 13 14 13 12 10 10 9 9 8 9 9 9 8 6 5 4 4 4 4
4 3 2 2 0 3 3 2 3 3 2 1 1 3 3 2 0 5 3 4 12 22 24 24 24 23 21 19 21 20 18 14 12 15 17 15 12 9 10 10 9 7 6 6 7 10 11 11 10 10 8 8 7 5
1 2 1 2 2 3 3 2 3 3 2 3 3 2 3 2 4 4 3 4 6 13 19 20 20 20 21 21 17 15 14 14 10 11 13 14 12 10 9 9 8 9 9 9 10 10 10 11 11 11 10 9 9 9
1 3 2 2 2 1 3 1 3 4 3 4 8 2 5 7 4 2 4 3 4 6 15 18 17 16 18 18 17 18 19 18 15 13 13 14 14 13 12 12 12 11 11 11 9 7 8 9 8 6 6 5 7 8
1 1 4 2 1 1 2 3 3 3 3 5 4 3 4 4 4 4 4 6 7 11 20 24 23 20 18 18 16 17 19 19 19 17 15 13 12 12 12 11 10 9 9 8 7 5 5 6 6 5 5 6 7 8
1 3 2 1 3 3 1 2 1 2 3 6 5 4 5 6 6 6 6 8 10 14 19 23 21 22 23 23 22 21 19 16 14 12 11 11 9 9 10 9 8 7 6 6 6 5 4 3 3 3 4 5 5 7
1 3 1 1 2 1 2 4 5 8 8 7 11 11 9 6 9 11 11 12 13 16 21 23 22 22 22 23 23 21 20 19 18 17 14 11 10 10 9 7 6 5 5 4 5 6 6 5 5 4 5 5 5 5
1 1 2 1 2 2 4 2 3 3 3 3 4 7 5 4 4 5 10 20 23 24 23 22 23 22 20 17 14 14 11 14 15 15 14 12 10 9 8 7 6 5 4 4 4 4 5 5 4 4 5 5 5 6
1 2 1 2 1 1 1 2 2 3 3 3 3 4 6 3 4 2 4 10 22 24 22 19 17 16 17 17 15 13 14 11 15 14 13 12 10 9 8 8 7 6 6 5 5 4 4 4 4 4 4 5 6 7
Wind_Direction
132 94 141 169 171 173 172 166 159 158 152 154 153 160 166 158 150 154 128 126 132 103 85 92 107 123 130 133 132 160 94 24 58 79 137 210 171 282 55 310 176 161 141 223 284 307 281 1 360 62 309 322 324 334
174 133 180 151 165 174 171 167 164 163 156 153 152 146 151 166 161 154 134 136 116 103 118 106 107 107 121 132 127 112 112 106 137 99 155 104 177 29 162 243 353 264 181 199 185 226 186 87 105 307 309 312 326 329
172 171 128 179 158 167 171 169 173 167 162 158 156 148 150 152 168 176 152 136 138 108 101 119 132 169 150 130 121 115 108 128 123 114 142 157 136 137 174 246 97 286 177 194 41 231 211 211 297 303 311 304 324 333
182 170 163 154 176 167 162 173 174 171 167 166 164 164 161 162 159 165 162 149 129 115 108 125 114 155 183 180 175 154 143 135 135 132 102 130 169 195 218 217 157 213 139 188 258 1 161 236 262 312 324 309 319 341
180 175 171 160 158 174 172 177 175 172 171 173 172 170 162 164 161 152 158 155 143 110 137 132 125 137 152 154 148 138 166 144 140 109 92 214 233 180 340 40 265 194 201 166 228 180 156 167 240 301 321 313 307 328
179 176 174 172 169 163 174 160 168 162 177 170 172 171 169 162 159 149 125 153 158 94 95 77 96 121 155 161 162 164 152 158 165 161 171 225 223 159 128 242 252 231 236 206 200 194 192 208 250 270 325 325 313 316
178 176 173 168 169 166 167 175 164 173 172 168 168 171 164 157 146 132 140 166 165 127 78 56 29 97 159 173 166 189 196 188 185 187 207 211 223 185 170 226 216 226 197 197 177 165 180 201 217 239 291 298 296 306
179 177 174 170 160 162 164 169 173 172 169 172 165 160 150 147 149 111 124 154 149 97 77 99 296 102 146 137 130 161 149 179 213 220 174 202 206 205 246 243 266 234 153 139 176 215 203 184 181 211 251 288 298 311
179 175 174 171 166 157 160 161 164 172 157 157 155 144 140 141 113 108 117 147 161 83 108 95 132 200 141 108 122 137 169 139 212 196 230 161 202 223 300 195 151 162 175 150 145 145 149 161 195 244 276 290 294 302
175 175 172 171 171 166 161 157 156 167 164 161 145 131 111 127 127 119 114 127 170 219 151 165 186 179 152 123 124 122 160 186 176 234 159 193 243 99 104 139 138 121 134 142 153 222 257 254 264 273 280 292 297 301
175 175 174 172 171 172 171 163 161 156 166 146 127 99 133 133 110 80 80 98 123 355 199 216 197 142 170 129 179 197 173 168 231 240 155 216 246 113 143 131 134 143 108 327 317 263 274 267 262 267 289 296 300 310
175 175 174 174 173 176 178 165 169 158 150 151 137 129 126 121 89 88 115 20 194 226 185 172 197 191 152 150 142 184 159 163 255 152 219 247 179 144 150 142 135 79 38 36 13 335 317 306 288 287 291 303 322 330
171 169 170 171 175 178 177 179 179 141 130 124 115 110 145 135 98 156 181 204 225 200 175 162 148 158 150 185 138 116 160 219 58 168 239 231 146 160 156 153 148 156 284 309 314 319 339 348 351 345 346 344 333 336
165 166 167 168 173 178 167 162 140 137 129 87 124 129 141 178 214 189 171 179 201 191 177 167 149 156 153 155 148 112 223 170 18 256 233 164 173 172 173 179 198 230 240 266 306 314 4 25 39 41 48 57 17 317
162 161 163 169 173 180 159 153 140 132 99 123 148 136 184 168 158 199 194 184 174 168 164 151 94 163 121 111 192 163 184 229 204 232 201 169 177 179 180 195 208 188 154 64 70 113 118 90 59 64 63 71 54 61
155 154 168 168 167 178 166 154 151 108 94 99 81 103 127 112 141 153 173 165 169 149 151 134 123 97 220 146 148 205 157 219 233 174 154 168 170 177 184 185 176 169 139 108 114 115 109 106 91 76 69 72 64 60
160 158 165 164 165 167 169 152 111 79 77 79 98 111 132 113 152 160 179 183 167 163 157 134 160 197 131 142 186 189 204 213 155 147 162 168 173 176 178 175 164 159 143 129 119 90 97 117 100 66 31 18 10 8
156 153 156 154 158 169 172 87 91 86 79 97 124 118 100 130 144 146 138 153 163 164 157 205 151 158 166 166 232 192 156 155 157 153 158 162 169 166 157 160 155 145 144 145 156 29 83 111 346 330 350 347 344 340
152 149 145 148 162 159 133 130 143 96 70 81 104 115 129 130 121 141 151 147 157 162 163 185 103 171 207 210 168 166 169 159 157 158 159 158 162 159 159 161 163 157 157 155 159 119 86 17 4 0 333 326 337 356
144 138 130 145 134 143 123 75 78 91 113 134 145 133 121 119 139 164 196 175 178 183 215 154 203 194 177 192 186 177 168 166 163 156 161 166 172 166 158 150 146 148 140 134 176 225 307 346 353 355 355 328 325 333
122 122 122 104 79 59 74 86 81 101 132 124 130 105 96 132 147 174 158 169 181 211 204 201 200 188 168 165 163 172 173 179 182 185 178 169 170 176 177 178 181 177 194 195 185 168 277 330 337 349 347 10 8 0
139 123 127 143 146 96 77 52 97 100 78 131 137 135 140 158 156 168 188 220 233 216 203 205 183 164 157 159 166 174 170 167 172 173 169 171 168 170 173 174 175 182 198 215 224 271 290 310 293 291 316 254 300 344
121 111 71 54 85 65 88 86 85 106 114 180 140 88 36 135 162 167 240 234 238 213 203 185 173 166 174 166 164 169 176 183 178 175 176 171 165 163 176 191 196 209 208 203 218 265 288 306 290 263 296 286 287 306
127 46 44 50 56 95 117 89 90 96 106 123 138 168 156 144 163 223 248 236 219 193 188 183 180 171 171 176 176 176 176 180 186 179 182 185 180 179 192 204 207 214 219 229 232 216 230 267 309 286 310 300 291 297
49 20 38 32 85 98 81 68 84 85 134 176 111 102 209 159 106 246 234 226 197 185 182 185 189 196 184 177 175 174 175 182 185 183 182 190 190 188 187 195 206 222 235 232 235 247 257 262 261 257 288 284 291 323
63 15 71 142 145 106 158 122 171 163 130 125 180 124 155 93 56 246 246 223 208 193 191 191 187 185 189 194 180 178 177 174 186 185 181 185 200 210 201 200 206 218 225 233 250 263 266 262 254 256 264 266 276 279
127 286 87 116 108 133 76 94 130 112 146 170 187 121 86 212 248 255 256 240 224 212 205 201 200 200 191 184 185 184 184 178 185 192 195 196 202 215 229 234 245 254 257 256 268 274 263 255 256 260 262 260 264 256
102 179 152 176 123 140 141 132 144 189 207 160 135 168 184 199 237 216 211 191 189 200 193 196 203 201 191 185 187 188 186 187 189 196 200 205 215 223 230 230 240 251 261 273 278 281 271 258 256 247 237 240 247 256
153 152 161 55 131 213 215 182 211 185 185 181 160 222 238 226 227 234 240 215 221 204 184 181 182 182 185 194 200 202 203 200 200 200 206 215 220 220 226 228 233 242 250 257 267 279 269 249 244 242 251 265 278 287
133 178 135 148 139 233 184 214 203 222 231 233 244 259 264 261 267 261 235 213 202 202 198 189 188 190 191 193 192 195 204 213 223 227 232 231 219 219 211 220 224 225 230 232 241 247 239 227 214 218 244 286 308 310
132 189 119 198 240 243 227 254 267 270 268 258 252 256 261 278 278 262 236 214 209 207 203 201 201 203 203 202 204 205 208 212 208 207 211 209 205 206 212 216 216 213 206 211 224 228 229 244 248 262 267 283 298 303
230 231 204 247 267 254 283 263 268 264 257 245 236 235 251 244 252 242 238 215 210 213 214 214 212 210 208 212 216 225 233 221 212 206 205 207 207 211 216 209 205 203 201 202 207 210 208 214 237 258 274 288 291 297
191 197 214 260 322 310 293 292 298 302 260 265 255 239 225 227 263 282 289 230 224 221 219 219 218 218 215 212 213 214 209 197 195 198 201 204 207 209 206 199 194 190 191 189 188 188 191 210 237 265 282 292 299 304